Terug naar catalogus

ATLAS 5 CENTAUR DEB

ActiefHEO
NORAD 44694·DEBRIS·🇺🇸 United States

Gelanceerd Oct 17, 2018 vanaf Cape Canaveral Space Force Station

Loading…

Volgende Passages (komende 24 uur)

TLE

VersSource: Space-Track

Epoch: Sep 14, 2026, 07:35 UTC

1 44694U 18079BG  26257.31613181 -.00000167  00000-0  00000-0 0  9993
2 44694  13.7202  32.0274 4713143 313.3881  15.9049  1.77404021 48143

Volg ATLAS 5 CENTAUR DEB in realtime met AllMySat

Download on the App Store